Location: Peebles
(55.6412°N, 3.1714°W)
Time: 09:54:58
(UTC+00:00)

COSMOS 2251 DEB - Pass Details

Date: 03 December 2022
Orbit: 738 x 761 km, 74.0° (Epoch: 29 January)

Event Time Altitude Azimuth Distance (km) Brightness Sun altitude
Exits shadow 05:06:31 15° 357° (N) 1,929 ? -25.9°
Drops below altitude 10° 05:07:58 10° 11° (NNE) 2,261 ? -25.7°
Sets 05:11:00 0° 29° (NNE) 3,189 ? -25.3°
